Total_Precipitation_Accumulation
2.91 2.99 3.03 3.12 2.91 2.82 2.75 2.45 2.15 2.21 2.30 2.22 1.94 1.87 1.92 1.93 2.05 2.28 2.58 2.53 2.41 2.56 2.89 3.15 3.35 3.39 3.34 3.35 3.32 3.30 3.20 3.13 3.07 2.86 2.59 2.34 2.17 2.12 2.17 2.28 2.28 2.19 2.13
3.23 3.28 3.35 3.34 3.15 3.11 3.04 2.77 2.55 2.65 2.58 2.49 2.22 2.08 2.08 2.13 2.20 2.35 2.60 2.64 2.31 2.16 2.45 2.94 3.27 3.50 3.57 3.60 3.45 3.30 3.28 3.20 3.17 2.97 2.74 2.50 2.30 2.21 2.15 2.17 2.25 2.22 2.12
3.44 3.52 3.63 3.53 3.31 3.21 3.20 3.12 2.97 2.91 2.79 2.55 2.41 2.38 2.34 2.21 2.18 2.40 2.60 2.67 2.48 2.31 2.40 2.58 2.83 3.16 3.60 3.81 3.70 3.56 3.44 3.37 3.25 3.08 2.92 2.72 2.49 2.31 2.20 2.16 2.16 2.17 2.13
3.36 3.63 3.73 3.54 3.32 3.22 3.32 3.45 3.30 3.17 3.10 2.98 2.72 2.49 2.40 2.37 2.27 2.31 2.33 2.44 2.58 2.49 2.53 2.48 2.59 2.82 3.20 3.53 3.78 3.85 3.72 3.55 3.40 3.25 3.13 2.96 2.80 2.55 2.34 2.28 2.22 2.17 2.15
3.50 3.71 3.80 3.80 3.51 3.47 3.59 3.44 3.61 3.43 3.38 3.17 2.76 2.60 2.36 2.20 2.23 2.18 2.25 2.27 2.30 2.34 2.40 2.43 2.54 2.62 2.85 3.19 3.48 3.68 3.73 3.65 3.43 3.20 3.16 3.11 2.95 2.73 2.54 2.44 2.32 2.22 2.15
3.64 3.84 3.83 3.89 3.76 3.79 4.00 3.97 3.96 3.74 3.42 3.21 2.79 2.57 2.31 2.09 2.02 2.06 2.03 2.02 1.99 1.97 2.05 2.14 2.33 2.34 2.49 2.73 3.12 3.44 3.86 3.95 3.69 3.48 3.36 3.19 2.98 2.72 2.54 2.50 2.45 2.38 2.29
4.24 4.44 4.22 4.17 3.98 3.93 4.00 4.00 3.86 3.76 3.56 3.46 3.35 2.96 2.46 2.05 1.90 1.79 1.81 1.87 1.81 1.75 1.84 2.00 2.07 2.10 2.15 2.23 2.41 2.81 3.50 3.86 3.78 3.63 3.59 3.41 3.12 2.86 2.66 2.61 2.59 2.55 2.45
4.88 4.76 4.66 4.36 4.17 4.06 3.92 3.83 3.73 3.65 3.41 3.39 3.43 3.32 2.87 2.51 2.05 1.63 1.73 1.76 1.72 1.78 1.79 1.72 1.77 1.77 1.73 1.88 1.97 2.31 2.76 3.08 3.44 3.68 3.73 3.46 3.25 3.07 2.92 2.79 2.73 2.68 2.63
4.72 4.58 4.49 4.29 4.18 4.01 3.83 3.78 3.72 3.64 3.47 3.40 3.42 3.54 3.31 2.78 2.25 1.87 1.72 1.69 1.73 1.79 1.77 1.71 1.66 1.65 1.65 1.75 1.81 2.04 2.35 2.48 2.83 3.19 3.49 3.32 3.18 3.20 3.14 3.08 3.01 2.97 2.90
4.39 4.24 4.28 4.21 4.08 3.86 3.69 3.42 3.39 3.48 3.62 3.41 3.28 3.06 2.90 2.64 2.51 2.23 1.96 1.83 1.74 1.71 1.70 1.66 1.57 1.62 1.68 1.81 1.96 1.99 2.07 2.12 2.32 2.59 2.79 2.84 2.88 2.99 3.09 3.03 3.07 3.15 3.15
4.08 3.81 3.79 3.75 3.59 3.39 3.26 3.10 3.06 3.12 3.22 3.18 3.14 3.01 2.87 2.68 2.45 2.36 2.17 1.97 1.88 1.74 1.66 1.67 1.66 1.67 1.72 1.76 1.84 1.88 1.93 1.94 2.04 2.16 2.25 2.38 2.53 2.73 2.90 2.98 3.07 3.21 3.35
3.87 3.57 3.24 3.18 3.14 2.97 2.76 2.72 2.72 2.71 2.78 2.83 2.89 2.80 2.63 2.55 2.48 2.47 2.32 2.12 2.03 1.89 1.78 1.75 1.72 1.67 1.70 1.64 1.58 1.75 1.72 1.73 1.78 1.89 1.96 2.01 2.13 2.31 2.48 2.66 2.93 3.14 3.27
3.34 3.10 2.88 2.75 2.66 2.59 2.49 2.43 2.44 2.32 2.27 2.33 2.33 2.42 2.42 2.33 2.22 2.31 2.38 2.26 2.06 1.92 1.83 1.74 1.63 1.56 1.52 1.58 1.65 1.66 1.53 1.50 1.46 1.49 1.58 1.71 1.85 2.00 2.06 2.19 2.38 2.65 2.88
2.82 2.61 2.52 2.32 2.10 1.97 1.91 1.99 2.04 2.01 1.98 1.96 1.91 2.11 2.18 2.14 2.10 2.11 2.16 2.33 2.29 2.07 1.95 1.77 1.63 1.56 1.52 1.54 1.65 1.51 1.39 1.38 1.33 1.34 1.39 1.44 1.58 1.78 1.86 1.85 1.83 1.91 2.08
2.23 2.13 2.05 1.98 1.88 1.77 1.70 1.70 1.74 1.82 1.82 1.76 1.75 1.85 1.87 1.84 1.85 1.89 1.97 2.14 2.36 2.28 2.08 1.84 1.77 1.70 1.66 1.64 1.74 1.49 1.46 1.42 1.38 1.40 1.41 1.44 1.52 1.69 1.77 1.75 1.62 1.53 1.53
1.91 1.78 1.71 1.67 1.67 1.63 1.62 1.68 1.66 1.67 1.74 1.66 1.61 1.59 1.57 1.53 1.61 1.64 1.73 1.86 2.04 2.21 2.09 1.73 1.67 1.70 1.71 1.60 1.79 1.61 1.53 1.51 1.45 1.61 1.72 1.67 1.65 1.82 1.95 1.97 1.78 1.62 1.57
1.68 1.57 1.49 1.44 1.41 1.44 1.45 1.50 1.47 1.42 1.38 1.34 1.28 1.26 1.29 1.37 1.50 1.49 1.52 1.65 1.87 2.08 2.14 1.76 1.61 1.71 1.86 1.81 1.84 1.75 1.64 1.64 1.63 1.96 2.10 2.30 2.07 1.97 2.05 2.08 2.00 1.77 1.61
1.50 1.44 1.31 1.25 1.22 1.18 1.17 1.17 1.20 1.22 1.21 1.15 1.17 1.22 1.23 1.27 1.37 1.43 1.49 1.55 1.71 1.97 2.13 2.05 1.81 1.83 1.90 1.86 1.94 1.89 1.69 1.59 1.63 2.05 2.27 2.56 2.51 2.23 2.23 2.12 2.02 1.83 1.67
1.35 1.29 1.23 1.19 1.13 1.12 1.06 1.02 1.03 1.09 1.09 1.06 1.11 1.17 1.22 1.39 1.40 1.43 1.50 1.53 1.64 1.77 2.09 2.14 1.94 1.95 2.01 2.02 2.16 2.00 1.81 1.79 1.54 1.83 2.24 2.55 2.64 2.64 2.70 2.58 2.33 1.99 1.74
1.30 1.26 1.23 1.14 1.09 1.05 1.03 1.00 0.99 1.03 1.05 1.04 1.10 1.17 1.23 1.37 1.44 1.50 1.51 1.59 1.67 1.81 2.00 2.14 2.08 2.07 2.14 2.19 2.21 2.13 1.99 1.85 1.67 1.61 2.06 2.48 2.78 2.83 2.96 3.05 2.80 2.36 1.98
1.22 1.21 1.20 1.13 1.10 1.03 0.96 0.96 0.96 0.98 1.06 1.06 1.04 1.06 1.11 1.21 1.32 1.33 1.24 1.35 1.55 1.80 1.87 2.06 2.11 2.14 2.13 2.21 2.11 1.89 1.83 1.80 1.65 1.56 1.76 2.11 2.79 3.11 3.14 3.21 3.12 2.64 2.20
1.29 1.25 1.20 1.14 1.08 0.86 0.92 0.94 0.93 1.00 1.06 1.06 1.04 1.03 0.98 0.96 0.95 0.97 1.02 1.09 1.27 1.57 1.92 2.16 2.12 2.10 1.99 1.92 1.94 1.89 1.90 1.92 1.86 1.56 1.53 1.76 2.32 3.11 3.32 3.25 3.18 2.58 2.07
1.30 1.22 1.17 1.16 1.09 0.96 0.93 0.86 0.88 0.99 1.08 1.14 1.18 1.14 0.90 0.78 0.89 0.94 0.99 1.05 1.17 1.36 1.69 2.08 2.17 1.97 1.92 1.88 1.95 1.95 2.01 2.04 1.91 1.61 1.66 1.87 2.20 2.88 3.02 2.98 2.90 2.27 1.81
1.28 1.28 1.25 1.21 1.19 1.04 0.94 0.83 0.87 0.95 1.06 1.08 1.09 1.13 1.12 1.01 0.94 1.03 1.10 1.18 1.29 1.41 1.52 1.64 1.99 1.83 1.62 1.68 1.82 1.88 2.01 2.06 1.94 1.73 1.77 2.05 2.24 2.68 2.64 2.69 2.58 2.10 1.72
1.25 1.21 1.18 1.20 1.24 1.18 1.02 0.89 0.83 0.87 0.98 1.00 0.96 0.94 0.93 0.96 1.05 1.22 1.33 1.54 1.66 1.74 1.62 1.77 1.94 1.89 1.74 1.71 1.65 1.80 2.11 2.18 2.04 1.86 1.85 2.14 2.27 2.35 2.43 2.47 2.20 1.99 1.69
1.23 1.18 1.15 1.19 1.18 1.08 0.91 0.77 0.75 0.77 0.91 0.96 1.02 0.97 0.88 0.83 0.98 1.16 1.39 1.72 1.87 1.93 1.77 1.87 2.13 2.15 1.97 1.99 1.99 1.94 2.17 2.28 2.18 2.08 1.83 1.94 2.12 2.13 2.32 2.22 2.04 1.88 1.78